(118892) = 2000 UE44 = 2002 JE82

Discovered at Socorro on 2000-10-24 by LINEAR.

Orbit

Orbit type: Main Belt

Note: WebGL enabled browser required.

epoch2024-03-31.0
epoch JD2460400.5
perihelion date2024-03-02.56525
perihelion JD2460372.06525
argument of perihelion (°)66.29979
ascending node (°)37.62751
inclination (°)8.46706
eccentricity0.2431954
perihelion distance (AU)2.0866484
Tisserand w.r.t. Jupiter3.3
ΔV w.r.t. Earth (km/sec)9.5
semimajor axis (AU)2.7571826
mean anomaly (°)6.12146
mean daily motion (°/day)0.21528090
aphelion distance (AU)3.428
period (years)4.58
P-vector [x]-0.23459747
P-vector [y]0.82962847
P-vector [z]0.50663658
Q-vector [x]-0.96792719
Q-vector [y]-0.24755459
Q-vector [z]-0.04282148
absolute magnitude15.04
phase slope0.15
uncertainty0
referenceMPEC 2024-C163
observations used1529
oppositions13
arc length (days)8557
first opposition used2000
last opposition used2024
residual rms (arc-secs)0.63
perturbers coarse indicatorM-v
perturbers precise indicator003Ek
first observation date used2000-09-09.0
last observation date used2024-02-13.0
computer nameMPCLINUX
JD of orbit computation2456966.802757
perihelion JD uncertainty (days)7.3834E-05
argument of perihelion uncertainty (°)3.1427E-05
ascending node uncertainty (°)2.6880E-05
inclination uncertainty (°)6.3392E-06
eccentricity uncertainty 3.0992E-08
perihelion distance uncertainty (AU)8.4485E-08
Minimum Orbit Intersection Distances (in AU)
for orbit epoch: 2460200.5, reference: E2024-CG3
Mercury1.77167
Venus1.37401
Earth1.11878
Mars0.51454
Jupiter1.82323
Saturn6.65856
Uranus15.8076
Neptune26.8783

Observations

1570 total observations over interval: 2000 09 09.38204 – 2024 02 13.297008
These data are available for download (format description).

Date (UT) J2000 RA J2000 Dec Magn Location Ref
2000 09 09.38204 03 37 10.56 +18 22 57.0 19.4 R 699 – Lowell Observatory-LONEOS MPS 30196
2000 09 09.39745 03 37 11.08 +18 23 01.8   699 – Lowell Observatory-LONEOS MPS 30196
2000 09 09.41290 03 37 11.58 +18 23 07.9   699 – Lowell Observatory-LONEOS MPS 30196
2000 09 09.42834 03 37 12.14 +18 23 10.9   699 – Lowell Observatory-LONEOS MPS 30196
2000 09 11.45944 03 38 24.37 +18 33 12.3 20.0 R 699 – Lowell Observatory-LONEOS MPS 30196
2000 09 11.46641 03 38 24.59 +18 33 13.1   699 – Lowell Observatory-LONEOS MPS 30196
2000 09 11.47339 03 38 24.73 +18 33 17.0   699 – Lowell Observatory-LONEOS MPS 30196
2000 09 11.48032 03 38 25.03 +18 33 19.9   699 – Lowell Observatory-LONEOS MPS 30196
2000 09 24.38771 03 43 40.19 +19 33 05.0 18.7 R 699 – Lowell Observatory-LONEOS MPS 30196
2000 09 24.41018 03 43 40.33 +19 33 11.8   699 – Lowell Observatory-LONEOS MPS 30196
2000 09 24.43269 03 43 40.63 +19 33 16.3   699 – Lowell Observatory-LONEOS MPS 30196
2000 09 24.45521 03 43 40.93 +19 33 22.5   699 – Lowell Observatory-LONEOS MPS 30196
2000 09 30.31807 03 44 31.07 +19 58 16.6 19.1   704 – Lincoln Laboratory ETS, New Mexico MPS 22644
2000 09 30.37877 03 44 31.13 +19 58 33.4 19.0   704 – Lincoln Laboratory ETS, New Mexico MPS 22644
2000 09 30.39424 03 44 31.13 +19 58 37.4 19.2   704 – Lincoln Laboratory ETS, New Mexico MPS 22644
2000 10 24.39665 03 36 31.43 +21 22 54.9 18.3   704 – Lincoln Laboratory ETS, New Mexico MPS 21596
2000 10 24.41011 03 36 30.82 +21 22 57.2 18.3   704 – Lincoln Laboratory ETS, New Mexico MPS 21596
2000 10 24.42353 03 36 30.22 +21 22 58.7 18.5   704 – Lincoln Laboratory ETS, New Mexico MPS 21596
2000 10 24.43695 03 36 29.64 +21 23 01.8 18.7   704 – Lincoln Laboratory ETS, New Mexico MPS 21596
2000 10 24.45039 03 36 29.01 +21 23 03.4 18.8   704 – Lincoln Laboratory ETS, New Mexico MPS 21596
2000 11 01.30001 03 30 04.91 +21 42 24.0 18.2   704 – Lincoln Laboratory ETS, New Mexico MPS 21596
2000 11 01.31431 03 30 04.11 +21 42 26.4 18.5   704 – Lincoln Laboratory ETS, New Mexico MPS 21596
2000 11 01.32855 03 30 03.25 +21 42 27.7 18.6   704 – Lincoln Laboratory ETS, New Mexico MPS 21596
2000 11 01.34321 03 30 02.44 +21 42 29.6 18.4   704 – Lincoln Laboratory ETS, New Mexico MPS 21596
2000 11 01.35743 03 30 01.63 +21 42 31.4 18.5   704 – Lincoln Laboratory ETS, New Mexico MPS 21596
2000 11 02.27530 03 29 11.08 +21 44 26.7 18.5   704 – Lincoln Laboratory ETS, New Mexico MPS 22644
2000 11 02.28090 03 29 10.80 +21 44 28.1 18.1   704 – Lincoln Laboratory ETS, New Mexico MPS 22644
2000 11 02.28885 03 29 10.32 +21 44 28.6 18.8   704 – Lincoln Laboratory ETS, New Mexico MPS 22644
2000 11 02.29452 03 29 09.93 +21 44 29.7 18.4   704 – Lincoln Laboratory ETS, New Mexico MPS 22644
2000 11 02.30248 03 29 09.52 +21 44 30.6 18.7   704 – Lincoln Laboratory ETS, New Mexico MPS 22644
2000 11 02.30807 03 29 09.17 +21 44 31.6 18.3   704 – Lincoln Laboratory ETS, New Mexico MPS 22644
2000 11 02.31603 03 29 08.74 +21 44 31.2 18.8   704 – Lincoln Laboratory ETS, New Mexico MPS 22644
2000 11 02.32162 03 29 08.38 +21 44 32.8 18.4   704 – Lincoln Laboratory ETS, New Mexico MPS 22644
2000 11 02.32959 03 29 07.94 +21 44 32.0 19.1   704 – Lincoln Laboratory ETS, New Mexico MPS 22644
2000 11 02.33520 03 29 07.62 +21 44 34.7 18.4   704 – Lincoln Laboratory ETS, New Mexico MPS 22644
2000 11 09.31998 03 22 12.11 +21 57 00.1 17.1   704 – Lincoln Laboratory ETS, New Mexico MPS 22644
2000 11 09.34478 03 22 10.55 +21 57 02.0 17.5   704 – Lincoln Laboratory ETS, New Mexico MPS 22644
2000 11 09.35909 03 22 09.63 +21 57 03.6 17.5   704 – Lincoln Laboratory ETS, New Mexico MPS 22644
2000 11 09.37402 03 22 08.63 +21 57 04.3 17.4   704 – Lincoln Laboratory ETS, New Mexico MPS 22644
2000 11 09.38865 03 22 07.67 +21 57 05.2 17.1   704 – Lincoln Laboratory ETS, New Mexico MPS 22644
2000 11 20.28956 03 10 29.80 +22 08 56.5 17.3   704 – Lincoln Laboratory ETS, New Mexico MPS 22644
2000 11 20.30678 03 10 28.63 +22 08 57.3 17.9   704 – Lincoln Laboratory ETS, New Mexico MPS 22644
2000 11 20.32178 03 10 27.59 +22 08 57.1 17.5   704 – Lincoln Laboratory ETS, New Mexico MPS 22644
2000 11 20.33680 03 10 26.63 +22 08 58.3 17.7   704 – Lincoln Laboratory ETS, New Mexico MPS 22644
2000 11 20.35183 03 10 25.64 +22 08 58.9 17.6   704 – Lincoln Laboratory ETS, New Mexico MPS 22644
2000 11 24.22700 03 06 22.78 +22 11 25.2 17.4 R 699 – Lowell Observatory-LONEOS MPS 22644
2000 11 24.25040 03 06 21.28 +22 11 26.1   699 – Lowell Observatory-LONEOS MPS 22644
2000 11 24.27385 03 06 19.81 +22 11 26.4   699 – Lowell Observatory-LONEOS MPS 22644
2000 11 24.29738 03 06 18.30 +22 11 27.4   699 – Lowell Observatory-LONEOS MPS 22644
2000 11 25.20886 03 05 22.85 +22 11 55.5 17.9   704 – Lincoln Laboratory ETS, New Mexico MPS 22644
2000 11 25.22408 03 05 21.90 +22 11 55.9 18.3   704 – Lincoln Laboratory ETS, New Mexico MPS 22644
2000 11 25.23929 03 05 20.94 +22 11 56.0 18.2   704 – Lincoln Laboratory ETS, New Mexico MPS 22644
2000 11 25.25453 03 05 19.99 +22 11 56.2 18.1   704 – Lincoln Laboratory ETS, New Mexico MPS 22644
2000 11 25.26977 03 05 19.01 +22 11 56.1 18.7   704 – Lincoln Laboratory ETS, New Mexico MPS 22644
2000 11 27.82507 03 02 47.54 +22 13 06.2 17.7   106 – Crni Vrh MPS 22644
2000 11 27.84191 03 02 46.57 +22 13 07.2 17.4   106 – Crni Vrh MPS 22644
2000 11 27.85888 03 02 45.54 +22 13 07.8 17.4   106 – Crni Vrh MPS 22644
2000 11 29.24356 03 01 26.14 +22 13 45.2 20.0   704 – Lincoln Laboratory ETS, New Mexico MPS 22644
2000 11 29.26020 03 01 25.24 +22 13 44.4 18.6   704 – Lincoln Laboratory ETS, New Mexico MPS 22644
2000 11 29.27514 03 01 24.37 +22 13 44.5 17.7   704 – Lincoln Laboratory ETS, New Mexico MPS 22644
2000 11 29.29102 03 01 23.45 +22 13 44.5 18.0   704 – Lincoln Laboratory ETS, New Mexico MPS 22644
2000 12 16.07565 02 49 26.59 +22 22 33.4 18.2 R 699 – Lowell Observatory-LONEOS MPS 25226
2000 12 16.09909 02 49 25.88 +22 22 34.7   699 – Lowell Observatory-LONEOS MPS 25226
2000 12 16.12255 02 49 25.08 +22 22 35.8   699 – Lowell Observatory-LONEOS MPS 25226
2000 12 16.14591 02 49 24.49 +22 22 37.9   699 – Lowell Observatory-LONEOS MPS 25226
2000 12 20.14142 02 47 54.84 +22 26 34.2 18.4   704 – Lincoln Laboratory ETS, New Mexico MPS 23868
2000 12 20.15659 02 47 54.51 +22 26 35.7 18.7   704 – Lincoln Laboratory ETS, New Mexico MPS 23868
2000 12 20.17176 02 47 54.19 +22 26 36.8 19.1   704 – Lincoln Laboratory ETS, New Mexico MPS 23868
2000 12 20.18692 02 47 53.88 +22 26 37.6 19.3   704 – Lincoln Laboratory ETS, New Mexico MPS 23868
2000 12 20.20206 02 47 53.54 +22 26 39.3 18.8   704 – Lincoln Laboratory ETS, New Mexico MPS 23868
2000 12 29.15936 02 46 42.08 +22 40 09.8 18.1 R 699 – Lowell Observatory-LONEOS MPS 23868
2000 12 29.18362 02 46 42.09 +22 40 11.9   699 – Lowell Observatory-LONEOS MPS 23868
2000 12 29.20782 02 46 42.12 +22 40 15.7   699 – Lowell Observatory-LONEOS MPS 23868
2000 12 29.23202 02 46 42.09 +22 40 18.3   699 – Lowell Observatory-LONEOS MPS 23868
2001 01 04.15111 02 47 34.04 +22 53 18.9 18.4   704 – Lincoln Laboratory ETS, New Mexico MPS 23868
2001 01 04.16630 02 47 34.31 +22 53 20.8 18.9   704 – Lincoln Laboratory ETS, New Mexico MPS 23868
2001 01 04.18195 02 47 34.44 +22 53 24.2 19.2   704 – Lincoln Laboratory ETS, New Mexico MPS 23868
2001 01 04.19710 02 47 34.74 +22 53 26.4 18.7   704 – Lincoln Laboratory ETS, New Mexico MPS 23868
2001 01 04.21226 02 47 34.93 +22 53 27.8 19.0   704 – Lincoln Laboratory ETS, New Mexico MPS 23868
2001 01 19.09016 02 55 11.26 +23 40 44.7 19.0   704 – Lincoln Laboratory ETS, New Mexico MPS 25226
2001 01 19.11432 02 55 12.40 +23 40 49.0 19.2   704 – Lincoln Laboratory ETS, New Mexico MPS 25226
2001 01 19.13102 02 55 13.07 +23 40 54.1 19.0   704 – Lincoln Laboratory ETS, New Mexico MPS 25226
2001 01 19.14700 02 55 13.79 +23 40 57.0 19.2   704 – Lincoln Laboratory ETS, New Mexico MPS 25226
2001 01 19.16210 02 55 14.46 +23 41 01.2 19.1   704 – Lincoln Laboratory ETS, New Mexico MPS 25226
2002 04 09.36047 14 16 13.55 -11 36 51.7 19.1   704 – Lincoln Laboratory ETS, New Mexico MPS 57069
2002 04 09.38383 14 16 12.16 -11 36 49.7 19.2   704 – Lincoln Laboratory ETS, New Mexico MPS 57069
